El Centro, CA

3:52 AM PDT on May 28, 2017 (GMT -0700)
El Centro Naval Air Facility

Weather History for KNJK - October, 2011

Change the Weather History Date:

Friday, October 21, 2011

  Actual Average Record
Temperature  
Mean Temperature 76 °F -  
Max Temperature 91 °F 85 °F 104 °F (2003)
Min Temperature 61 °F 59 °F 51 °F (1996)
Cooling Degree Days 11    
Growing Degree Days 26 (Base 50)    
Moisture  
Dew Point 56 °F    
Average Humidity 54    
Maximum Humidity 73    
Minimum Humidity 26    
Precipitation  
Precipitation 0.00 in - - ()
Sea Level Pressure  
Sea Level Pressure 30.00 in    
Wind  
Wind Speed 4 mph (North)    
Max Wind Speed 8 mph    
Max Gust Speed -    
Visibility 10 miles    
Events      
Averages and records for this station are not official NWS values.
T = Trace of Precipitation, MM = Missing Value Source: NWS Daily Summary

Daily Weather History Graph

Daily Weather History Graph

Search for Another Location

Airport or City:

Trip Planner

Search our weather history database for the weather conditions in past years. The results will help you decide how hot, cold, wet, or windy it might be!

Date:

Astronomy

Oct. 21, 2011 Rise Set
Actual Time 6:51 AM PDT 6:02 PM PDT
Civil Twilight 6:26 AM PDT 6:27 PM PDT
Nautical Twilight 5:57 AM PDT 6:56 PM PDT
Astronomical Twilight 5:28 AM PDT 7:25 PM PDT
Moon 1:05 AM PDT (10/21) 2:33 PM PDT (10/21)
Length of Visible Light 12h 01m
Length of Day
11h 11m
Waning Crescent, 32% of the Moon is Illuminated
Oct 21
Waning Crescent
Oct 26
New
Nov 2
First Quarter
Nov 10
Full
Nov 18
Last Quarter

Hourly Weather History & Observations

Time (PDT) Temp. Heat Index Dew Point Humidity Pressure Visibility Wind Dir Wind Speed Gust Speed Precip Events Conditions
12:56 AM 66.0 °F - 54.0 °F 65% 29.95 in 10.0 mi NNE 3.5 mph - N/A   Clear
1:56 AM 64.9 °F - 55.0 °F 70% 29.95 in 10.0 mi NE 4.6 mph - N/A   Clear
2:56 AM 64.0 °F - 55.0 °F 73% 29.95 in 10.0 mi NE 3.5 mph - N/A   Clear
3:56 AM 64.0 °F - 51.1 °F 63% 29.96 in 10.0 mi NNE 4.6 mph - N/A   Clear
4:56 AM 62.1 °F - 51.1 °F 67% 29.97 in 10.0 mi North 3.5 mph - N/A   Clear
5:56 AM 61.0 °F - 52.0 °F 72% 29.99 in 10.0 mi NNW 3.5 mph - N/A   Clear
6:56 AM 62.1 °F - 51.1 °F 67% 30.00 in 10.0 mi NE 5.8 mph - N/A   Clear
7:56 AM 66.0 °F - 54.0 °F 65% 30.03 in 10.0 mi ENE 3.5 mph - N/A   Clear
8:36 AM 71.6 °F - 57.2 °F 60% 30.00 in 10.0 mi Calm Calm - N/A   Mostly Cloudy
8:56 AM 73.0 °F - 59.0 °F 61% 30.05 in 10.0 mi Calm Calm - N/A   Mostly Cloudy
9:45 AM 77.0 °F - 59.0 °F 54% 30.01 in 10.0 mi NW 4.6 mph - N/A   Scattered Clouds
9:56 AM 77.0 °F - 59.0 °F 54% 30.06 in 10.0 mi NNW 4.6 mph - N/A   Clear
10:56 AM 81.0 °F 83.0 °F 66.0 °F 60% 30.05 in 10.0 mi ENE 8.1 mph - N/A   Clear
11:56 AM 82.9 °F 84.4 °F 64.0 °F 53% 30.04 in 10.0 mi Variable 5.8 mph - N/A   Clear
12:56 PM 84.9 °F 86.1 °F 64.0 °F 49% 30.02 in 10.0 mi Calm Calm - N/A   Clear
1:56 PM 87.1 °F 86.5 °F 59.0 °F 39% 30.00 in 10.0 mi Variable 3.5 mph - N/A   Clear
2:56 PM 89.1 °F 87.7 °F 57.0 °F 34% 29.98 in 10.0 mi Calm Calm - N/A   Clear
3:56 PM 89.1 °F 87.1 °F 55.0 °F 31% 29.97 in 10.0 mi Calm Calm - N/A   Clear
4:56 PM 91.0 °F - 52.0 °F 26% 29.96 in 10.0 mi Calm Calm - N/A   Clear
5:56 PM 88.0 °F - 52.0 °F 29% 29.96 in 10.0 mi Calm Calm - N/A   Clear
6:56 PM 81.0 °F 80.4 °F 53.1 °F 38% 29.98 in 10.0 mi NNW 5.8 mph - N/A   Clear
7:56 PM 77.0 °F - 54.0 °F 45% 29.99 in 10.0 mi North 4.6 mph - N/A   Clear
8:56 PM 73.9 °F - 55.9 °F 53% 30.00 in 10.0 mi North 6.9 mph - N/A   Clear
9:56 PM 73.0 °F - 55.0 °F 53% 30.00 in 10.0 mi North 5.8 mph - N/A   Clear
10:56 PM 71.1 °F - 55.9 °F 59% 30.00 in 10.0 mi SSW 3.5 mph - N/A   Clear
11:56 PM 70.0 °F - 52.0 °F 53% 30.00 in 10.0 mi WSW 5.8 mph - N/A   Clear